Year,Month,Day,Hour,Minute,Value (Times are PST for windspeed in km/hr)
2007,01,11,00,00,6.00
2007,01,11,00,01,5.50
2007,01,11,00,02,6.60
2007,01,11,00,03,6.50
2007,01,11,00,04,8.00
2007,01,11,00,05,6.20
2007,01,11,00,06,5.10
2007,01,11,00,07,4.30
2007,01,11,00,08,4.30
2007,01,11,00,09,9.40
2007,01,11,00,10,8.80
2007,01,11,00,11,6.30
2007,01,11,00,12,5.10
2007,01,11,00,13,6.40
2007,01,11,00,14,7.90
2007,01,11,00,15,7.00
2007,01,11,00,16,6.90
2007,01,11,00,17,7.70
2007,01,11,00,18,12.80
2007,01,11,00,19,9.80
2007,01,11,00,20,9.70
2007,01,11,00,21,8.60
2007,01,11,00,22,8.70
2007,01,11,00,23,7.20
2007,01,11,00,24,9.00
2007,01,11,00,25,10.00
2007,01,11,00,26,7.10
2007,01,11,00,27,9.20
2007,01,11,00,28,9.60
2007,01,11,00,29,10.30
2007,01,11,00,30,8.40
2007,01,11,00,31,7.70
2007,01,11,00,32,6.00
2007,01,11,00,33,8.50
2007,01,11,00,34,7.90
2007,01,11,00,35,14.80
2007,01,11,00,36,12.60
2007,01,11,00,37,11.40
2007,01,11,00,38,10.90
2007,01,11,00,39,10.60
2007,01,11,00,40,8.10
2007,01,11,00,41,11.00
2007,01,11,00,42,10.90
2007,01,11,00,43,7.60
2007,01,11,00,44,10.20
2007,01,11,00,45,8.00
2007,01,11,00,46,6.70
2007,01,11,00,47,9.30
2007,01,11,00,48,12.30
2007,01,11,00,49,11.00
2007,01,11,00,50,7.90
2007,01,11,00,51,8.70
2007,01,11,00,52,10.70
2007,01,11,00,53,14.10
2007,01,11,00,54,14.00
2007,01,11,00,55,10.10
2007,01,11,00,56,12.90
2007,01,11,00,57,8.50
2007,01,11,00,58,8.30
2007,01,11,00,59,9.60
2007,01,11,01,00,7.90
2007,01,11,01,01,8.10
2007,01,11,01,02,8.60
2007,01,11,01,03,7.70
2007,01,11,01,04,10.60
2007,01,11,01,05,9.10
2007,01,11,01,06,7.70
2007,01,11,01,07,11.80
2007,01,11,01,08,11.30
2007,01,11,01,09,12.20
2007,01,11,01,10,13.60
2007,01,11,01,11,12.40
2007,01,11,01,12,12.40
2007,01,11,01,13,8.40
2007,01,11,01,14,9.40
2007,01,11,01,15,8.30
2007,01,11,01,16,8.90
2007,01,11,01,17,8.70
2007,01,11,01,18,6.60
2007,01,11,01,19,6.20
2007,01,11,01,20,5.80
2007,01,11,01,21,5.10
2007,01,11,01,22,5.40
2007,01,11,01,23,6.90
2007,01,11,01,24,5.80
2007,01,11,01,25,6.60
2007,01,11,01,26,6.40
2007,01,11,01,27,6.00
2007,01,11,01,28,5.90
2007,01,11,01,29,5.90
2007,01,11,01,30,8.40
2007,01,11,01,31,8.40
2007,01,11,01,32,7.20
2007,01,11,01,33,7.10
2007,01,11,01,34,6.80
2007,01,11,01,35,7.90
2007,01,11,01,36,6.60
2007,01,11,01,37,6.40
2007,01,11,01,38,7.90
2007,01,11,01,39,8.80
2007,01,11,01,40,6.40
2007,01,11,01,41,9.70
2007,01,11,01,42,9.00
2007,01,11,01,43,9.60
2007,01,11,01,44,7.50
2007,01,11,01,45,9.10
2007,01,11,01,46,7.40
2007,01,11,01,47,7.80
2007,01,11,01,48,7.70
2007,01,11,01,49,8.50
2007,01,11,01,50,8.10
2007,01,11,01,51,8.20
2007,01,11,01,52,7.00
2007,01,11,01,53,6.80
2007,01,11,01,54,7.70
2007,01,11,01,55,7.10
2007,01,11,01,56,7.30
2007,01,11,01,57,7.70
2007,01,11,01,58,8.00
2007,01,11,01,59,10.20
2007,01,11,02,00,8.50
2007,01,11,02,01,10.10
2007,01,11,02,02,5.90
2007,01,11,02,03,8.40
2007,01,11,02,04,9.10
2007,01,11,02,05,7.30
2007,01,11,02,06,6.80
2007,01,11,02,07,6.20
2007,01,11,02,08,7.30
2007,01,11,02,09,7.00
2007,01,11,02,10,6.90
2007,01,11,02,11,8.90
2007,01,11,02,12,9.30
2007,01,11,02,13,7.40
2007,01,11,02,14,6.30
2007,01,11,02,15,7.90
2007,01,11,02,16,7.80
2007,01,11,02,17,7.60
2007,01,11,02,18,5.10
2007,01,11,02,19,4.70
2007,01,11,02,20,4.70
2007,01,11,02,21,4.70
2007,01,11,02,22,7.20
2007,01,11,02,23,7.20
2007,01,11,02,24,6.10
2007,01,11,02,25,5.40
2007,01,11,02,26,6.00
2007,01,11,02,27,7.20
2007,01,11,02,28,6.80
2007,01,11,02,29,7.50
2007,01,11,02,30,6.70
2007,01,11,02,31,7.30
2007,01,11,02,32,9.10
2007,01,11,02,33,7.10
2007,01,11,02,34,10.30
2007,01,11,02,35,12.20
2007,01,11,02,36,8.20
2007,01,11,02,37,8.90
2007,01,11,02,38,9.40
2007,01,11,02,39,10.30
2007,01,11,02,40,8.80
2007,01,11,02,41,10.90
2007,01,11,02,42,10.00
2007,01,11,02,43,10.40
2007,01,11,02,44,8.90
2007,01,11,02,45,7.80
2007,01,11,02,46,8.30
2007,01,11,02,47,10.90
2007,01,11,02,48,8.90
2007,01,11,02,49,8.50
2007,01,11,02,50,9.10
2007,01,11,02,51,7.10
2007,01,11,02,52,7.90
2007,01,11,02,53,7.70
2007,01,11,02,54,9.20
2007,01,11,02,55,9.20
2007,01,11,02,56,9.40
2007,01,11,02,57,8.60
2007,01,11,02,58,7.90
2007,01,11,02,59,8.50
2007,01,11,03,00,9.40
2007,01,11,03,01,8.90
2007,01,11,03,02,9.80
2007,01,11,03,03,7.70
2007,01,11,03,04,12.80
2007,01,11,03,05,11.30
2007,01,11,03,06,8.90
2007,01,11,03,07,8.40
2007,01,11,03,08,9.00
2007,01,11,03,09,9.00
2007,01,11,03,10,7.10
2007,01,11,03,11,9.00
2007,01,11,03,12,10.20
2007,01,11,03,13,8.30
2007,01,11,03,14,6.10
2007,01,11,03,15,9.80
2007,01,11,03,16,5.20
2007,01,11,03,17,6.40
2007,01,11,03,18,8.90
2007,01,11,03,19,7.60
2007,01,11,03,20,6.40
2007,01,11,03,21,5.40
2007,01,11,03,22,4.90
2007,01,11,03,23,9.80
2007,01,11,03,24,7.20
2007,01,11,03,25,7.00
2007,01,11,03,26,6.90
2007,01,11,03,27,6.40
2007,01,11,03,28,7.70
2007,01,11,03,29,6.60
2007,01,11,03,30,5.80
2007,01,11,03,31,4.70
2007,01,11,03,32,8.30
2007,01,11,03,33,7.70
2007,01,11,03,34,6.20
2007,01,11,03,35,7.30
2007,01,11,03,36,6.60
2007,01,11,03,37,6.60
2007,01,11,03,38,7.20
2007,01,11,03,39,6.30
2007,01,11,03,40,7.00
2007,01,11,03,41,8.10
2007,01,11,03,42,6.40
2007,01,11,03,43,8.70
2007,01,11,03,44,6.50
2007,01,11,03,45,7.10
2007,01,11,03,46,6.90
2007,01,11,03,47,6.10
2007,01,11,03,48,5.80
2007,01,11,03,49,7.50
2007,01,11,03,50,6.60
2007,01,11,03,51,6.10
2007,01,11,03,52,4.90
2007,01,11,03,53,8.80
2007,01,11,03,54,7.30
2007,01,11,03,55,5.50
2007,01,11,03,56,7.60
2007,01,11,03,57,8.70
2007,01,11,03,58,9.40
2007,01,11,03,59,10.90
2007,01,11,04,00,7.30
2007,01,11,04,01,7.50
2007,01,11,04,02,7.30
2007,01,11,04,03,8.10
2007,01,11,04,04,8.60
2007,01,11,04,05,8.00
2007,01,11,04,06,9.30
2007,01,11,04,07,9.40
2007,01,11,04,08,8.00
2007,01,11,04,09,7.40
2007,01,11,04,10,9.30
2007,01,11,04,11,8.80
2007,01,11,04,12,6.30
2007,01,11,04,13,9.40
2007,01,11,04,14,9.60
2007,01,11,04,15,9.30
2007,01,11,04,16,8.10
2007,01,11,04,17,10.10
2007,01,11,04,18,6.40
2007,01,11,04,19,7.40
2007,01,11,04,20,7.80
2007,01,11,04,21,6.90
2007,01,11,04,22,6.00
2007,01,11,04,23,6.70
2007,01,11,04,24,9.10
2007,01,11,04,25,7.10
2007,01,11,04,26,8.30
2007,01,11,04,27,7.80
2007,01,11,04,28,7.20
2007,01,11,04,29,7.00
2007,01,11,04,30,7.80
2007,01,11,04,31,6.80
2007,01,11,04,32,8.70
2007,01,11,04,33,12.70
2007,01,11,04,34,8.20
2007,01,11,04,35,7.80
2007,01,11,04,36,9.10
2007,01,11,04,37,7.00
2007,01,11,04,38,7.30
2007,01,11,04,39,9.20
2007,01,11,04,40,10.40
2007,01,11,04,41,7.50
2007,01,11,04,42,9.80
2007,01,11,04,43,9.10
2007,01,11,04,44,9.70
2007,01,11,04,45,9.10
2007,01,11,04,46,7.60
2007,01,11,04,47,11.20
2007,01,11,04,48,11.00
2007,01,11,04,49,10.10
2007,01,11,04,50,8.90
2007,01,11,04,51,8.90
2007,01,11,04,52,9.20
2007,01,11,04,53,9.70
2007,01,11,04,54,11.90
2007,01,11,04,55,12.70
2007,01,11,04,56,12.10
2007,01,11,04,57,12.00
2007,01,11,04,58,10.70
2007,01,11,04,59,6.90
2007,01,11,05,00,8.60
2007,01,11,05,01,9.40
2007,01,11,05,02,7.50
2007,01,11,05,03,11.00
2007,01,11,05,04,5.80
2007,01,11,05,05,8.60
2007,01,11,05,06,6.80
2007,01,11,05,07,6.90
2007,01,11,05,08,8.40
2007,01,11,05,09,5.80
2007,01,11,05,10,6.00
2007,01,11,05,11,6.00
2007,01,11,05,12,7.40
2007,01,11,05,13,7.30
2007,01,11,05,14,8.60
2007,01,11,05,15,8.50
2007,01,11,05,16,6.50
2007,01,11,05,17,6.90
2007,01,11,05,18,8.20
2007,01,11,05,19,6.40
2007,01,11,05,20,9.00
2007,01,11,05,21,7.20
2007,01,11,05,22,9.10
2007,01,11,05,23,6.80
2007,01,11,05,24,6.20
2007,01,11,05,25,7.40
2007,01,11,05,26,8.40
2007,01,11,05,27,6.60
2007,01,11,05,28,7.20
2007,01,11,05,29,7.20
2007,01,11,05,30,5.30
2007,01,11,05,31,5.50
2007,01,11,05,32,4.70
2007,01,11,05,33,7.20
2007,01,11,05,34,7.10
2007,01,11,05,35,7.60
2007,01,11,05,36,8.10
2007,01,11,05,37,6.20
2007,01,11,05,38,8.10
2007,01,11,05,39,10.80
2007,01,11,05,40,5.70
2007,01,11,05,41,6.40
2007,01,11,05,42,6.00
2007,01,11,05,43,7.60
2007,01,11,05,44,6.50
2007,01,11,05,45,6.20
2007,01,11,05,46,5.60
2007,01,11,05,47,5.70
2007,01,11,05,48,4.90
2007,01,11,05,49,4.30
2007,01,11,05,50,6.40
2007,01,11,05,51,6.50
2007,01,11,05,52,6.00
2007,01,11,05,53,4.00
2007,01,11,05,54,6.60
2007,01,11,05,55,6.90
2007,01,11,05,56,7.70
2007,01,11,05,57,5.40
2007,01,11,05,58,4.10
2007,01,11,05,59,5.10
2007,01,11,06,00,5.50
2007,01,11,06,01,5.30
2007,01,11,06,02,4.60
2007,01,11,06,03,5.20
2007,01,11,06,04,5.10
2007,01,11,06,05,6.60
2007,01,11,06,06,7.20
2007,01,11,06,07,5.50
2007,01,11,06,08,7.30
2007,01,11,06,09,5.30
2007,01,11,06,10,5.80
2007,01,11,06,11,7.00
2007,01,11,06,12,8.00
2007,01,11,06,13,8.00
2007,01,11,06,14,5.40
2007,01,11,06,15,4.90
2007,01,11,06,16,6.40
2007,01,11,06,17,6.80
2007,01,11,06,18,6.00
2007,01,11,06,19,5.60
2007,01,11,06,20,6.10
2007,01,11,06,21,4.70
2007,01,11,06,22,7.10
2007,01,11,06,23,5.50
2007,01,11,06,24,6.50
2007,01,11,06,25,7.50
2007,01,11,06,26,5.30
2007,01,11,06,27,3.90
2007,01,11,06,28,4.40
2007,01,11,06,29,6.50
2007,01,11,06,30,4.70
2007,01,11,06,31,5.20
2007,01,11,06,32,5.00
2007,01,11,06,33,5.70
2007,01,11,06,34,6.90
2007,01,11,06,35,7.90
2007,01,11,06,36,6.60
2007,01,11,06,37,6.30
2007,01,11,06,38,4.70
2007,01,11,06,39,5.60
2007,01,11,06,40,6.10
2007,01,11,06,41,5.70
2007,01,11,06,42,4.40
2007,01,11,06,43,6.80
2007,01,11,06,44,4.10
2007,01,11,06,45,3.20
2007,01,11,06,46,4.10
2007,01,11,06,47,6.40
2007,01,11,06,48,7.30
2007,01,11,06,49,4.50
2007,01,11,06,50,7.60
2007,01,11,06,51,5.20
2007,01,11,06,52,5.00
2007,01,11,06,53,6.60
2007,01,11,06,54,6.60
2007,01,11,06,55,6.30
2007,01,11,06,56,7.90
2007,01,11,06,57,7.00
2007,01,11,06,58,6.00
2007,01,11,06,59,5.80
2007,01,11,07,00,4.10
2007,01,11,07,01,4.90
2007,01,11,07,02,5.10
2007,01,11,07,03,5.10
2007,01,11,07,04,5.70
2007,01,11,07,05,5.10
2007,01,11,07,06,5.10
2007,01,11,07,07,5.70
2007,01,11,07,08,6.40
2007,01,11,07,09,5.30
2007,01,11,07,10,5.40
2007,01,11,07,11,6.30
2007,01,11,07,12,5.90
2007,01,11,07,13,7.20
2007,01,11,07,14,8.70
2007,01,11,07,15,6.30
2007,01,11,07,16,4.20
2007,01,11,07,17,6.40
2007,01,11,07,18,5.20
2007,01,11,07,19,5.90
2007,01,11,07,20,6.20
2007,01,11,07,21,5.80
2007,01,11,07,22,5.10
2007,01,11,07,23,7.30
2007,01,11,07,24,4.60
2007,01,11,07,25,6.20
2007,01,11,07,26,6.50
2007,01,11,07,27,4.90
2007,01,11,07,28,5.50
2007,01,11,07,29,5.20
2007,01,11,07,30,6.50
2007,01,11,07,31,5.90
2007,01,11,07,32,5.10
2007,01,11,07,33,4.50
2007,01,11,07,34,4.60
2007,01,11,07,35,3.60
2007,01,11,07,36,4.40
2007,01,11,07,37,6.40
2007,01,11,07,38,5.20
2007,01,11,07,39,6.00
2007,01,11,07,40,5.70
2007,01,11,07,41,6.30
2007,01,11,07,42,6.40
2007,01,11,07,43,6.30
2007,01,11,07,44,4.60
2007,01,11,07,45,5.80
2007,01,11,07,46,5.10
2007,01,11,07,47,5.70
2007,01,11,07,48,4.40
2007,01,11,07,49,4.80
2007,01,11,07,50,5.60
2007,01,11,07,51,6.00
2007,01,11,07,52,6.30
2007,01,11,07,53,6.70
2007,01,11,07,54,6.80
2007,01,11,07,55,6.10
2007,01,11,07,56,5.60
2007,01,11,07,57,6.70
2007,01,11,07,58,5.10
2007,01,11,07,59,6.50
2007,01,11,08,00,7.00
2007,01,11,08,01,7.10
2007,01,11,08,02,9.70
2007,01,11,08,03,8.00
2007,01,11,08,04,7.60
2007,01,11,08,05,6.70
2007,01,11,08,06,5.20
2007,01,11,08,07,5.20
2007,01,11,08,08,5.40
2007,01,11,08,09,5.30
2007,01,11,08,10,6.30
2007,01,11,08,11,5.80
2007,01,11,08,12,8.60
2007,01,11,08,13,7.30
2007,01,11,08,14,7.50
2007,01,11,08,15,8.70
2007,01,11,08,16,7.90
2007,01,11,08,17,6.60
2007,01,11,08,18,6.30
2007,01,11,08,19,6.50
2007,01,11,08,20,7.90
2007,01,11,08,21,8.30
2007,01,11,08,22,12.00
2007,01,11,08,23,8.70
2007,01,11,08,24,9.00
2007,01,11,08,25,7.60
2007,01,11,08,26,6.90
2007,01,11,08,27,6.70
2007,01,11,08,28,6.20
2007,01,11,08,29,10.60
2007,01,11,08,30,7.30
2007,01,11,08,31,4.70
2007,01,11,08,32,7.30
2007,01,11,08,33,8.40
2007,01,11,08,34,7.40
2007,01,11,08,35,6.20
2007,01,11,08,36,6.80
2007,01,11,08,37,7.50
2007,01,11,08,38,6.90
2007,01,11,08,39,6.30
2007,01,11,08,40,8.30
2007,01,11,08,41,5.40
2007,01,11,08,42,6.20
2007,01,11,08,43,7.90
2007,01,11,08,44,7.20
2007,01,11,08,45,8.00
2007,01,11,08,46,6.40
2007,01,11,08,47,6.80
2007,01,11,08,48,7.10
2007,01,11,08,49,6.80
2007,01,11,08,50,7.20
2007,01,11,08,51,7.70
2007,01,11,08,52,7.90
2007,01,11,08,53,7.80
2007,01,11,08,54,6.90
2007,01,11,08,55,4.70
2007,01,11,08,56,7.30
2007,01,11,08,57,7.40
2007,01,11,08,58,7.20
2007,01,11,08,59,7.20
2007,01,11,09,00,8.00
2007,01,11,09,01,8.00
2007,01,11,09,02,8.10
2007,01,11,09,03,8.70
2007,01,11,09,04,6.90
2007,01,11,09,05,7.20
2007,01,11,09,06,7.90
2007,01,11,09,07,8.00
2007,01,11,09,08,8.70
2007,01,11,09,09,6.80
2007,01,11,09,10,6.80
2007,01,11,09,11,7.90
2007,01,11,09,12,6.10
2007,01,11,09,13,7.20
2007,01,11,09,14,9.80
2007,01,11,09,15,7.30
2007,01,11,09,16,8.90
2007,01,11,09,17,7.70
2007,01,11,09,18,8.10
2007,01,11,09,19,6.80
2007,01,11,09,20,8.50
2007,01,11,09,21,8.40
2007,01,11,09,22,5.60
2007,01,11,09,23,5.90
2007,01,11,09,24,6.00
2007,01,11,09,25,3.90
2007,01,11,09,26,5.80
2007,01,11,09,27,6.40
2007,01,11,09,28,9.10
2007,01,11,09,29,7.90
2007,01,11,09,30,7.70
2007,01,11,09,31,8.50
2007,01,11,09,32,8.50
2007,01,11,09,33,6.70
2007,01,11,09,34,7.00
2007,01,11,09,35,6.10
2007,01,11,09,36,9.80
2007,01,11,09,37,8.10
2007,01,11,09,38,6.90
2007,01,11,09,39,7.40
2007,01,11,09,40,6.90
2007,01,11,09,41,6.30
2007,01,11,09,42,8.00
2007,01,11,09,43,6.90
2007,01,11,09,44,6.20
2007,01,11,09,45,4.70
2007,01,11,09,46,6.10
2007,01,11,09,47,4.70
2007,01,11,09,48,4.30
2007,01,11,09,49,2.70
2007,01,11,09,50,3.90
2007,01,11,09,51,5.90
2007,01,11,09,52,4.30
2007,01,11,09,53,6.00
2007,01,11,09,54,3.50
2007,01,11,09,55,6.40
2007,01,11,09,56,4.70
2007,01,11,09,57,4.90
2007,01,11,09,58,3.10
2007,01,11,09,59,3.30
2007,01,11,10,00,6.30
2007,01,11,10,01,4.60
2007,01,11,10,02,3.90
2007,01,11,10,03,4.80
2007,01,11,10,04,3.90
2007,01,11,10,05,4.80
2007,01,11,10,06,5.50
2007,01,11,10,07,3.30
2007,01,11,10,08,5.10
2007,01,11,10,09,5.20
2007,01,11,10,10,4.20
2007,01,11,10,11,6.10
2007,01,11,10,12,6.00
2007,01,11,10,13,3.60
2007,01,11,10,14,5.30
2007,01,11,10,15,6.60
2007,01,11,10,16,7.30
2007,01,11,10,17,8.30
2007,01,11,10,18,11.20
2007,01,11,10,19,11.30
2007,01,11,10,20,10.00
2007,01,11,10,21,10.80
2007,01,11,10,22,9.70
2007,01,11,10,23,9.70
2007,01,11,10,24,8.80
2007,01,11,10,25,8.30
2007,01,11,10,26,7.10
2007,01,11,10,27,7.60
2007,01,11,10,28,5.90
2007,01,11,10,29,4.50
2007,01,11,10,30,7.70
2007,01,11,10,31,4.90
2007,01,11,10,32,5.10
2007,01,11,10,33,4.50
2007,01,11,10,34,7.00
2007,01,11,10,35,5.50
2007,01,11,10,36,4.50
2007,01,11,10,37,6.40
2007,01,11,10,38,6.50
2007,01,11,10,39,5.80
2007,01,11,10,40,4.40
2007,01,11,10,41,4.30
2007,01,11,10,42,6.70
2007,01,11,10,43,5.70
2007,01,11,10,44,4.90
2007,01,11,10,45,5.00
2007,01,11,10,46,7.80
2007,01,11,10,47,7.60
2007,01,11,10,48,8.50
2007,01,11,10,49,7.40
2007,01,11,10,50,6.70
2007,01,11,10,51,6.00
2007,01,11,10,52,8.40
2007,01,11,10,53,9.70
2007,01,11,10,54,6.40
2007,01,11,10,55,7.60
2007,01,11,10,56,5.20
2007,01,11,10,57,5.60
2007,01,11,10,58,7.40
2007,01,11,10,59,5.80
2007,01,11,11,00,6.20
2007,01,11,11,01,6.10
2007,01,11,11,02,8.00
2007,01,11,11,03,6.60
2007,01,11,11,04,7.40
2007,01,11,11,05,8.20
2007,01,11,11,06,10.20
2007,01,11,11,07,10.60
2007,01,11,11,08,7.70
2007,01,11,11,09,7.70
2007,01,11,11,10,5.00
2007,01,11,11,11,6.30
2007,01,11,11,12,5.60
2007,01,11,11,13,8.40
2007,01,11,11,14,8.90
2007,01,11,11,15,8.30
2007,01,11,11,16,11.60
2007,01,11,11,17,7.10
2007,01,11,11,18,9.40
2007,01,11,11,19,6.20
2007,01,11,11,20,7.20
2007,01,11,11,21,8.10
2007,01,11,11,22,7.00
2007,01,11,11,23,6.70
2007,01,11,11,24,5.60
2007,01,11,11,25,6.10
2007,01,11,11,26,6.70
2007,01,11,11,27,5.90
2007,01,11,11,28,6.20
2007,01,11,11,29,7.30
2007,01,11,11,30,7.30
2007,01,11,11,31,6.40
2007,01,11,11,32,6.30
2007,01,11,11,33,7.00
2007,01,11,11,34,7.90
2007,01,11,11,35,8.70
2007,01,11,11,36,7.90
2007,01,11,11,37,5.40
2007,01,11,11,38,5.40
2007,01,11,11,39,6.60
2007,01,11,11,40,5.80
2007,01,11,11,41,7.40
2007,01,11,11,42,4.80
2007,01,11,11,43,4.10
2007,01,11,11,44,8.10
2007,01,11,11,45,4.50
2007,01,11,11,46,5.20
2007,01,11,11,47,5.60
2007,01,11,11,48,7.80
2007,01,11,11,49,8.30
2007,01,11,11,50,10.10
2007,01,11,11,51,11.70
2007,01,11,11,52,9.10
2007,01,11,11,53,6.60
2007,01,11,11,54,7.40
2007,01,11,11,55,7.40
2007,01,11,11,56,6.00
2007,01,11,11,57,5.50
2007,01,11,11,58,6.60
2007,01,11,11,59,8.90
2007,01,11,12,00,6.80
2007,01,11,12,01,7.50
2007,01,11,12,02,3.80
2007,01,11,12,03,4.50
2007,01,11,12,04,8.10
2007,01,11,12,05,10.20
2007,01,11,12,06,5.30
2007,01,11,12,07,4.30
2007,01,11,12,08,4.80
2007,01,11,12,09,6.30
2007,01,11,12,10,8.00
2007,01,11,12,11,5.80
2007,01,11,12,12,5.60
2007,01,11,12,13,9.50
2007,01,11,12,14,7.90
2007,01,11,12,15,7.00
2007,01,11,12,16,6.30
2007,01,11,12,17,6.50
2007,01,11,12,18,11.40
2007,01,11,12,19,7.10
2007,01,11,12,20,9.80
2007,01,11,12,21,7.00
2007,01,11,12,22,9.20
2007,01,11,12,23,9.00
2007,01,11,12,24,6.00
2007,01,11,12,25,10.60
2007,01,11,12,26,8.90
2007,01,11,12,27,5.90
2007,01,11,12,28,4.50
2007,01,11,12,29,6.10
2007,01,11,12,30,5.10
2007,01,11,12,31,5.30
2007,01,11,12,32,5.10
2007,01,11,12,33,4.50
2007,01,11,12,34,6.70
2007,01,11,12,35,7.30
2007,01,11,12,36,5.10
2007,01,11,12,37,4.40
2007,01,11,12,38,5.40
2007,01,11,12,39,6.50
2007,01,11,12,40,6.00
2007,01,11,12,41,4.70
2007,01,11,12,42,6.90
2007,01,11,12,43,8.00
2007,01,11,12,44,7.30
2007,01,11,12,45,5.60
2007,01,11,12,46,5.10
2007,01,11,12,47,4.50
2007,01,11,12,48,8.00
2007,01,11,12,49,8.80
2007,01,11,12,50,8.80
2007,01,11,12,51,10.00
2007,01,11,12,52,8.50
2007,01,11,12,53,8.70
2007,01,11,12,54,6.00
2007,01,11,12,55,5.90
2007,01,11,12,56,4.50
2007,01,11,12,57,7.20
2007,01,11,12,58,6.20
2007,01,11,12,59,5.60
2007,01,11,13,00,6.40
2007,01,11,13,01,7.30
2007,01,11,13,02,4.90
2007,01,11,13,03,5.60
2007,01,11,13,04,4.30
2007,01,11,13,05,5.30
2007,01,11,13,06,6.80
2007,01,11,13,07,4.70
2007,01,11,13,08,3.50
2007,01,11,13,09,4.70
2007,01,11,13,10,3.70
2007,01,11,13,11,5.60
2007,01,11,13,12,6.90
2007,01,11,13,13,10.20
2007,01,11,13,14,9.00
2007,01,11,13,15,6.00
2007,01,11,13,16,5.60
2007,01,11,13,17,5.20
2007,01,11,13,18,6.10
2007,01,11,13,19,6.80
2007,01,11,13,20,6.40
2007,01,11,13,21,6.40
2007,01,11,13,22,8.90
2007,01,11,13,23,6.10
2007,01,11,13,24,4.70
2007,01,11,13,25,7.00
2007,01,11,13,26,5.90
2007,01,11,13,27,3.10
2007,01,11,13,28,6.30
2007,01,11,13,29,8.60
2007,01,11,13,30,6.30
2007,01,11,13,31,4.70
2007,01,11,13,32,7.20
2007,01,11,13,33,4.00
2007,01,11,13,34,4.00
2007,01,11,13,35,3.60
2007,01,11,13,36,2.90
2007,01,11,13,37,4.30
2007,01,11,13,38,5.70
2007,01,11,13,39,6.40
2007,01,11,13,40,4.80
2007,01,11,13,41,3.00
2007,01,11,13,42,3.10
2007,01,11,13,43,1.00
2007,01,11,13,44,4.30
2007,01,11,13,45,6.20
2007,01,11,13,46,7.10
2007,01,11,13,47,7.00
2007,01,11,13,48,4.70
2007,01,11,13,49,3.80
2007,01,11,13,50,5.70
2007,01,11,13,51,6.70
2007,01,11,13,52,5.90
2007,01,11,13,53,6.00
2007,01,11,13,54,6.10
2007,01,11,13,55,4.30
2007,01,11,13,56,4.10
2007,01,11,13,57,5.30
2007,01,11,13,58,5.10
2007,01,11,13,59,6.40
2007,01,11,14,00,6.60
2007,01,11,14,01,6.30
2007,01,11,14,02,6.30
2007,01,11,14,03,3.80
2007,01,11,14,04,3.60
2007,01,11,14,05,4.80
2007,01,11,14,06,4.90
2007,01,11,14,07,5.80
2007,01,11,14,08,6.70
2007,01,11,14,09,5.60
2007,01,11,14,10,3.90
2007,01,11,14,11,4.20
2007,01,11,14,12,3.40
2007,01,11,14,13,5.70
2007,01,11,14,14,7.40
2007,01,11,14,15,6.50
2007,01,11,14,16,5.40
2007,01,11,14,17,7.30
2007,01,11,14,18,4.70
2007,01,11,14,19,4.10
2007,01,11,14,20,5.60
2007,01,11,14,21,6.10
2007,01,11,14,22,7.20
2007,01,11,14,23,5.60
2007,01,11,14,24,3.50
2007,01,11,14,25,5.20
2007,01,11,14,26,7.50
2007,01,11,14,27,7.00
2007,01,11,14,28,6.00
2007,01,11,14,29,4.80
2007,01,11,14,30,5.40
2007,01,11,14,31,7.70
2007,01,11,14,32,5.00
2007,01,11,14,33,6.00
2007,01,11,14,34,6.50
2007,01,11,14,35,8.50
2007,01,11,14,36,8.60
2007,01,11,14,37,5.00
2007,01,11,14,38,1.80
2007,01,11,14,39,3.50
2007,01,11,14,40,5.50
2007,01,11,14,41,6.80
2007,01,11,14,42,5.40
2007,01,11,14,43,4.70
2007,01,11,14,44,3.40
2007,01,11,14,45,2.70
2007,01,11,14,46,1.90
2007,01,11,14,47,1.80
2007,01,11,14,48,3.70
2007,01,11,14,49,2.90
2007,01,11,14,50,4.60
2007,01,11,14,51,1.90
2007,01,11,14,52,3.60
2007,01,11,14,53,3.10
2007,01,11,14,54,5.30
2007,01,11,14,55,2.30
2007,01,11,14,56,4.10
2007,01,11,14,57,4.20
2007,01,11,14,58,3.40
2007,01,11,14,59,4.10
2007,01,11,15,00,4.60
2007,01,11,15,01,4.80
2007,01,11,15,02,3.60
2007,01,11,15,03,4.20
2007,01,11,15,04,5.30
2007,01,11,15,05,2.10
2007,01,11,15,06,0.70
2007,01,11,15,07,2.30
2007,01,11,15,08,2.20
2007,01,11,15,09,2.40
2007,01,11,15,10,3.70
2007,01,11,15,11,4.80
2007,01,11,15,12,5.00
2007,01,11,15,13,5.00
2007,01,11,15,14,4.40
2007,01,11,15,15,5.30
2007,01,11,15,16,3.00
2007,01,11,15,17,1.80
2007,01,11,15,18,2.50
2007,01,11,15,19,5.10
2007,01,11,15,20,4.70
2007,01,11,15,21,3.10
2007,01,11,15,22,5.40
2007,01,11,15,23,4.70
2007,01,11,15,24,4.70
2007,01,11,15,25,4.10
2007,01,11,15,26,3.60
2007,01,11,15,27,4.10
2007,01,11,15,28,4.90
2007,01,11,15,29,2.50
2007,01,11,15,30,3.60
2007,01,11,15,31,4.40
2007,01,11,15,32,4.60
2007,01,11,15,33,3.70
2007,01,11,15,34,2.00
2007,01,11,15,35,1.70
2007,01,11,15,36,3.60
2007,01,11,15,37,2.90
2007,01,11,15,38,2.30
2007,01,11,15,39,2.10
2007,01,11,15,40,1.40
2007,01,11,15,41,1.40
2007,01,11,15,42,1.20
2007,01,11,15,43,0.80
2007,01,11,15,44,2.30
2007,01,11,15,45,1.10
2007,01,11,15,46,0.60
2007,01,11,15,47,1.40
2007,01,11,15,48,0.00
2007,01,11,15,49,0.00
2007,01,11,15,50,0.20
2007,01,11,15,51,0.00
2007,01,11,15,52,0.40
2007,01,11,15,53,0.20
2007,01,11,15,54,0.10
2007,01,11,15,55,0.10
2007,01,11,15,56,0.10
2007,01,11,15,57,0.00
2007,01,11,15,58,0.30
2007,01,11,15,59,2.10
2007,01,11,16,00,1.20
2007,01,11,16,01,1.00
2007,01,11,16,02,1.50
2007,01,11,16,03,0.50
2007,01,11,16,04,2.60
2007,01,11,16,05,2.50
2007,01,11,16,06,2.90
2007,01,11,16,07,4.10
2007,01,11,16,08,3.50
2007,01,11,16,09,4.20
2007,01,11,16,10,3.80
2007,01,11,16,11,3.00
2007,01,11,16,12,2.30
2007,01,11,16,13,3.00
2007,01,11,16,14,2.90
2007,01,11,16,15,3.90
2007,01,11,16,16,3.70
2007,01,11,16,17,3.30
2007,01,11,16,18,3.00
2007,01,11,16,19,3.20
2007,01,11,16,20,2.80
2007,01,11,16,21,2.80
2007,01,11,16,22,3.10
2007,01,11,16,23,3.30
2007,01,11,16,24,3.20
2007,01,11,16,25,3.50
2007,01,11,16,26,3.80
2007,01,11,16,27,2.60
2007,01,11,16,28,2.50
2007,01,11,16,29,2.50
2007,01,11,16,30,3.10
2007,01,11,16,31,3.90
2007,01,11,16,32,3.90
2007,01,11,16,33,4.80
2007,01,11,16,34,3.70
2007,01,11,16,35,4.20
2007,01,11,16,36,3.90
2007,01,11,16,37,4.60
2007,01,11,16,38,4.20
2007,01,11,16,39,4.50
2007,01,11,16,40,4.60
2007,01,11,16,41,3.90
2007,01,11,16,42,3.30
2007,01,11,16,43,4.40
2007,01,11,16,44,4.00
2007,01,11,16,45,4.40
2007,01,11,16,46,4.70
2007,01,11,16,47,4.70
2007,01,11,16,48,5.00
2007,01,11,16,49,4.30
2007,01,11,16,50,4.50
2007,01,11,16,51,3.50
2007,01,11,16,52,4.70
2007,01,11,16,53,4.50
2007,01,11,16,54,5.70
2007,01,11,16,55,4.00
2007,01,11,16,56,4.80
2007,01,11,16,57,3.90
2007,01,11,16,58,3.40
2007,01,11,16,59,2.50
2007,01,11,17,00,3.40
2007,01,11,17,01,3.00
2007,01,11,17,02,3.30
2007,01,11,17,03,4.30
2007,01,11,17,04,4.00
2007,01,11,17,05,3.90
2007,01,11,17,06,3.60
2007,01,11,17,07,3.00
2007,01,11,17,08,2.50
2007,01,11,17,09,2.70
2007,01,11,17,10,2.30
2007,01,11,17,11,3.90
2007,01,11,17,12,3.00
2007,01,11,17,13,3.90
2007,01,11,17,14,3.70
2007,01,11,17,15,3.10
2007,01,11,17,16,2.10
2007,01,11,17,17,2.30
2007,01,11,17,18,3.00
2007,01,11,17,19,3.00
2007,01,11,17,20,3.90
2007,01,11,17,21,4.60
2007,01,11,17,22,4.90
2007,01,11,17,23,4.00
2007,01,11,17,24,3.40
2007,01,11,17,25,5.20
2007,01,11,17,26,5.30
2007,01,11,17,27,3.10
2007,01,11,17,28,3.20
2007,01,11,17,29,3.50
2007,01,11,17,30,3.20
2007,01,11,17,31,5.20
2007,01,11,17,32,4.40
2007,01,11,17,33,5.20
2007,01,11,17,34,3.80
2007,01,11,17,35,3.90
2007,01,11,17,36,3.90
2007,01,11,17,37,5.80
2007,01,11,17,38,3.80
2007,01,11,17,39,3.90
2007,01,11,17,40,3.00
2007,01,11,17,41,3.30
2007,01,11,17,42,2.80
2007,01,11,17,43,3.30
2007,01,11,17,44,3.00
2007,01,11,17,45,4.50
2007,01,11,17,46,5.60
2007,01,11,17,47,3.70
2007,01,11,17,48,4.00
2007,01,11,17,49,3.40
2007,01,11,17,50,4.10
2007,01,11,17,51,5.20
2007,01,11,17,52,3.10
2007,01,11,17,53,3.00
2007,01,11,17,54,3.10
2007,01,11,17,55,2.00
2007,01,11,17,56,3.10
2007,01,11,17,57,4.70
2007,01,11,17,58,3.60
2007,01,11,17,59,5.70
2007,01,11,18,00,4.00
2007,01,11,18,01,5.40
2007,01,11,18,02,3.70
2007,01,11,18,03,4.50